Presure
361 299 256 243 255 232 236 221 219 212 196 177 193 185 200 187 193 203 203 193 203 214 175 188 171 133 195 136 151 185 138 146 156 165 126 134 133 133 147 148 96 94 113 128 123
369 349 225 262 259 244 236 218 222 214 203 203 177 189 190 192 193 188 200 180 205 196 205 205 165 165 162 192 136 124 169 138 144 150 153 126 126 130 137 139 103 95 143 155 139
284 318 341 280 243 261 242 242 186 219 180 203 202 181 191 190 178 201 186 209 186 194 186 197 198 195 202 149 131 157 177 158 123 146 103 152 154 75 130 139 88 94 93 85 95
351 330 337 265 299 256 255 255 239 221 217 177 199 189 198 193 190 196 190 192 196 200 202 184 187 195 209 197 167 123 133 137 197 89 93 147 151 154 127 132 92 71 90 89 80
340 347 351 268 281 280 246 254 244 218 221 215 223 181 200 192 198 192 186 181 182 184 204 202 195 195 200 209 207 204 225 196 157 205 133 91 147 149 95 88 142 79 118 130 100
347 336 333 349 306 284 258 263 254 233 185 208 222 220 211 199 203 189 199 186 181 187 203 198 196 213 215 209 206 209 205 135 133 126 169 207 82 147 149 137 112 163 133 136 82
357 355 355 372 326 370 291 258 243 235 256 218 225 229 220 196 184 196 172 206 191 181 176 194 180 189 219 200 205 235 231 210 133 134 118 157 164 93 86 146 106 85 84 83 88
329 356 351 353 353 355 306 247 259 264 229 193 208 223 224 225 206 204 195 209 188 186 191 184 206 190 183 211 202 195 200 211 223 128 151 232 216 235 234 98 67 149 81 85 101
282 383 371 348 340 343 324 273 256 279 262 217 245 229 231 236 226 225 217 203 196 212 186 200 190 209 188 196 181 179 194 194 210 224 205 200 138 141 225 246 206 146 146 148 115
285 391 378 350 327 333 313 311 259 294 259 252 224 250 222 246 226 224 226 226 219 194 218 187 185 178 176 179 198 192 193 235 226 188 196 145 133 141 144 231 241 247 143 148 150
416 416 387 347 329 330 301 306 311 266 262 246 251 227 222 239 227 212 215 226 230 230 211 193 209 182 179 226 228 194 236 187 190 195 132 193 122 141 203 272 241 223 232 148 141
303 419 392 358 339 327 309 290 287 289 258 263 251 247 233 222 253 234 226 221 235 227 231 232 234 227 221 231 236 237 189 237 198 213 210 268 284 128 171 155 146 248 223 253 164
306 423 398 378 334 332 316 301 287 285 284 264 254 263 253 244 212 211 234 232 229 226 229 234 230 236 234 240 246 241 238 245 255 291 291 287 276 271 180 133 136 148 176 270 191
299 441 407 380 348 337 330 317 292 287 284 284 270 268 238 239 230 243 244 229 224 232 240 237 239 250 243 235 242 240 250 284 287 286 277 276 249 263 137 239 128 135 151 174 241
315 338 409 376 354 340 326 328 310 286 293 295 285 280 272 272 288 271 248 243 245 251 254 247 244 245 240 247 250 290 281 285 278 283 285 279 287 284 269 290 270 149 144 153 158
327 263 288 363 371 358 337 325 330 326 299 278 299 298 285 281 269 280 283 282 276 276 281 280 283 266 288 287 281 280 280 279 277 284 286 285 292 290 331 406 419 134 130 150 152
237 200 161 314 227 366 357 349 337 329 329 322 302 285 275 274 279 276 276 280 297 294 290 285 285 288 286 284 286 289 277 291 302 300 353 382 364 341 324 326 323 91 271 156 223
210 273 313 144 156 406 376 348 353 353 341 329 323 310 321 308 308 310 303 295 301 288 287 292 292 301 314 312 326 373 407 369 401 347 312 302 300 297 295 294 326 322 146 152 160
200 201 306 312 295 279 130 357 424 396 381 360 360 348 321 336 325 321 353 330 336 344 350 338 361 384 382 352 321 306 304 303 298 291 281 277 273 313 306 94 298 288 299 314 160
206 200 191 217 375 300 281 211 251 274 308 318 331 391 393 419 415 401 407 389 377 347 336 312 305 294 288 290 287 283 286 278 272 260 267 289 288 272 281 282 286 283 216 151 155
171 280 195 213 202 429 411 244 261 215 157 285 286 287 289 287 288 289 286 283 282 280 282 281 278 273 275 274 269 262 262 271 301 285 274 282 277 265 260 262 263 267 256 186 237
145 164 196 222 204 226 223 338 340 341 137 260 241 239 243 247 257 266 272 272 119 272 268 267 262 255 254 249 331 308 277 277 267 264 267 247 251 252 252 252 252 261 260 266 270
212 142 168 157 157 209 158 211 315 311 319 319 179 141 141 269 254 244 245 242 245 250 247 248 260 319 298 293 275 269 260 259 256 248 250 247 249 251 241 252 182 151 233 237 159
188 165 216 183 168 197 149 134 146 260 297 289 280 278 283 219 279 216 286 289 291 292 301 307 282 279 272 268 259 256 253 248 231 252 245 244 249 247 251 245 243 243 251 247 255
202 204 202 142 152 243 145 173 184 146 160 285 274 268 268 274 284 284 287 289 302 300 274 267 262 256 261 245 256 244 246 240 236 240 241 247 238 246 242 243 247 236 249 250 250
189 190 188 178 179 144 160 256 172 136 181 197 165 274 263 271 283 276 273 271 252 255 143 254 251 248 256 247 240 250 235 236 225 245 232 226 227 238 248 239 242 243 242 250 245
170 192 190 216 216 218 190 155 230 170 161 143 133 163 258 267 263 236 255 244 245 253 241 172 179 142 238 247 247 232 236 240 238 244 229 239 246 253 239 239 240 170 177 235 180
Wind_Speed
48 90 87 81 97 92 101 91 93 95 95 85 87 86 83 87 83 76 77 86 76 72 82 84 90 73 76 68 73 84 61 63 67 66 56 49 41 39 48 50 35 32 36 37 37
36 54 64 91 100 91 94 88 94 95 94 94 82 89 89 87 78 84 79 86 75 81 75 76 78 84 84 66 67 63 79 58 63 67 66 47 45 44 41 46 35 36 47 50 35
56 49 60 92 75 99 93 101 67 96 83 97 96 88 91 89 85 82 87 76 87 81 87 83 82 87 83 79 69 77 85 76 56 65 56 70 64 15 43 48 32 38 30 16 29
27 38 39 73 91 89 97 105 103 94 99 77 93 95 95 88 89 84 86 82 80 79 79 88 86 83 78 83 84 67 68 68 83 44 42 64 65 64 49 49 39 13 32 24 17
15 22 19 75 78 93 86 98 100 89 95 90 101 80 91 90 93 90 91 85 85 84 83 85 88 86 81 81 86 85 75 71 66 83 59 44 63 63 40 29 52 22 39 45 42
26 24 14 20 56 82 84 97 103 95 65 84 98 98 95 92 92 95 91 94 88 86 86 86 85 79 81 83 84 86 86 72 69 65 81 79 32 61 63 56 45 66 46 47 28
14 13 13 11 40 9 85 89 92 92 108 81 98 103 97 93 88 96 73 92 91 85 75 84 75 82 81 86 86 74 77 87 69 67 66 76 79 49 35 58 46 39 30 35 35
30 17 9 8 13 9 69 74 91 99 93 69 76 93 99 102 97 94 96 93 90 79 87 81 89 88 77 85 87 78 84 87 77 70 71 72 81 90 87 52 15 60 35 41 46
40 21 12 8 13 14 45 82 78 84 98 77 105 98 105 108 98 97 97 94 94 93 92 83 87 91 85 84 75 74 83 80 89 84 85 83 68 62 91 92 86 62 61 62 53
44 14 10 18 19 19 44 45 84 73 94 100 88 105 85 106 96 92 96 99 98 91 95 93 78 74 71 74 89 85 87 82 79 72 72 71 68 63 62 94 95 95 60 61 61
30 7 16 24 24 26 48 45 44 82 88 94 98 89 82 101 95 81 85 96 98 100 94 87 92 89 85 89 87 91 84 76 72 76 61 70 61 67 74 83 94 97 80 62 60
47 5 20 32 33 32 48 55 56 61 81 90 93 85 89 73 102 101 97 85 99 95 98 97 93 87 85 88 86 85 89 83 76 84 79 85 78 60 67 65 63 81 95 98 65
50 8 23 35 28 31 48 55 62 64 74 78 91 94 93 98 65 64 99 99 91 87 89 93 88 90 86 88 86 85 83 84 86 83 81 73 74 80 63 55 59 59 65 97 77
59 10 27 36 35 36 40 54 63 64 72 74 85 82 75 81 81 90 100 81 71 83 94 90 88 93 85 77 81 80 90 80 76 75 77 77 68 78 57 77 52 56 55 62 86
62 40 28 31 33 39 29 43 58 58 65 63 70 75 76 77 68 82 88 81 87 93 99 93 88 88 80 88 85 73 75 74 72 74 73 79 73 71 79 89 79 56 57 59 59
61 56 32 21 33 34 27 31 41 46 62 56 57 63 71 68 67 67 70 73 76 74 73 76 77 87 74 70 69 67 65 66 67 70 68 72 75 71 69 50 38 55 46 54 56
94 34 35 36 18 16 21 20 18 30 38 49 56 61 56 58 62 65 64 66 67 66 68 69 69 67 66 64 64 68 64 69 67 67 54 39 22 21 18 16 19 22 30 57 48
82 75 61 30 32 9 11 8 14 22 25 29 41 43 46 51 50 57 61 57 61 59 58 63 66 64 63 59 58 40 28 29 21 10 7 6 7 10 10 12 15 18 37 51 54
68 71 62 53 55 55 26 52 15 19 19 16 16 21 25 27 33 44 23 32 29 28 28 28 26 18 12 8 7 6 6 8 8 6 4 3 2 27 24 15 24 24 29 28 50
68 65 63 81 40 47 48 37 42 43 43 40 36 16 15 10 11 12 13 10 11 11 11 14 16 15 12 10 10 10 8 12 12 11 7 16 30 19 34 33 29 26 6 44 45
40 86 56 73 69 48 35 33 40 34 25 37 36 34 34 33 31 28 26 24 21 19 18 18 16 15 13 12 13 17 15 22 35 34 29 31 39 37 27 28 26 26 19 7 7
32 41 54 70 64 78 77 60 55 50 18 32 31 32 32 30 28 25 23 21 10 20 19 19 19 19 17 17 26 41 37 40 36 31 39 19 29 26 25 22 17 23 21 23 25
87 29 33 34 34 64 37 71 58 54 52 51 23 16 16 25 24 22 22 23 22 20 21 20 19 25 38 46 48 46 40 36 34 27 29 25 26 25 13 23 18 32 9 8 34
55 43 85 52 35 47 25 18 30 62 52 55 53 51 46 28 36 22 25 23 22 22 24 32 40 45 44 47 42 39 36 32 24 26 24 21 21 19 22 18 16 15 18 16 19
70 78 70 20 32 73 22 32 46 26 41 51 50 47 49 47 43 38 33 27 29 38 42 43 42 39 42 31 42 34 31 28 21 18 22 21 18 16 16 15 15 12 15 15 14
58 59 61 41 34 24 25 63 30 14 37 54 41 44 45 44 39 41 45 48 44 42 5 38 34 35 33 34 26 32 24 23 20 21 18 16 15 15 12 12 10 12 13 15 15
42 53 57 76 77 68 48 22 54 26 17 20 18 36 41 43 42 42 41 39 38 36 37 9 11 3 27 24 27 23 21 18 15 18 16 14 14 12 12 12 9 18 20 8 21
Wind_Direction
226 224 228 232 227 227 223 223 221 220 223 233 229 232 231 234 233 236 235 236 236 237 238 240 239 229 239 228 231 240 231 237 242 239 229 231 230 232 238 239 208 206 225 234 232
242 227 234 226 227 227 225 225 220 222 222 222 232 230 232 233 233 234 236 238 238 238 239 241 233 236 236 235 228 220 240 228 237 239 237 213 222 224 232 236 214 209 242 244 230
230 234 227 225 226 225 223 223 230 219 232 223 224 234 227 230 236 232 236 235 238 238 240 241 241 243 246 231 224 235 241 237 226 234 221 240 238 223 221 237 216 213 217 243 223
257 243 241 229 227 223 223 221 219 221 224 232 225 230 224 226 229 231 232 235 236 237 238 241 241 242 244 244 239 222 223 227 241 233 239 237 240 240 215 226 221 251 225 242 254
293 286 281 228 225 224 221 223 220 223 224 226 226 230 226 229 226 229 233 235 237 238 238 238 240 242 243 243 245 247 247 237 226 244 227 236 235 236 228 228 235 256 236 235 230
281 274 248 282 228 222 220 221 221 223 228 224 226 226 224 226 228 231 228 234 239 239 237 240 241 242 242 243 245 245 248 224 223 219 237 244 244 233 236 235 233 241 241 234 265
329 305 289 308 223 220 220 220 220 222 226 228 226 227 225 227 233 230 237 229 235 240 241 241 242 245 242 243 244 248 248 249 225 223 224 234 237 246 248 232 234 241 262 267 265
6 308 283 226 143 185 214 218 221 222 224 229 226 227 226 226 228 231 233 233 238 243 240 244 238 244 243 242 246 248 249 249 251 227 230 250 246 247 241 248 241 232 258 263 248
18 299 283 169 151 152 194 214 217 217 222 224 226 226 226 227 229 230 232 235 238 237 242 240 244 240 247 248 246 244 246 249 249 252 246 247 228 222 248 244 241 223 226 230 235
14 305 246 172 164 167 190 199 215 206 219 222 225 227 230 230 228 231 233 234 237 240 239 242 244 247 240 251 247 249 251 254 251 246 251 232 228 226 225 246 245 245 220 225 230
340 339 173 172 176 166 190 186 196 213 217 222 224 228 229 230 229 235 236 236 237 238 241 243 244 248 253 252 253 251 258 250 251 251 237 246 235 229 251 256 248 250 244 225 222
24 67 161 157 158 172 181 185 193 205 216 219 223 225 230 232 230 232 236 240 240 240 241 244 246 247 250 253 255 256 253 258 251 258 254 264 261 234 234 229 228 250 247 249 228
30 101 154 148 175 185 190 193 197 200 209 217 224 224 228 231 236 237 236 240 243 243 245 246 249 252 252 255 257 258 259 261 266 264 262 259 256 258 246 231 230 230 237 251 238
32 114 143 153 161 166 179 196 201 207 211 215 219 226 234 234 235 234 236 241 245 248 248 249 251 254 255 255 259 260 264 264 261 260 260 259 253 258 236 255 230 230 231 239 252
33 51 130 147 154 166 183 194 210 217 212 216 222 223 227 234 230 233 237 241 245 248 251 252 253 257 257 261 262 261 261 260 260 260 259 261 262 261 262 265 259 229 227 231 233
37 36 70 109 157 173 178 195 196 207 221 226 222 223 226 229 235 237 236 239 244 246 249 252 254 256 257 258 259 260 262 263 262 263 264 264 266 267 272 282 281 229 228 230 233
34 47 38 57 88 184 184 193 196 212 213 218 221 227 236 238 241 243 246 249 247 247 249 254 255 255 257 260 265 268 265 269 269 271 273 278 272 264 279 287 291 227 261 231 245
34 36 39 37 42 134 116 148 206 201 206 218 225 233 234 238 240 241 245 251 252 253 255 255 258 260 263 267 268 272 273 266 265 241 223 253 264 284 299 299 70 52 232 231 235
37 38 42 44 40 44 58 71 107 159 189 204 222 230 225 237 235 241 229 237 240 242 242 253 250 248 240 209 172 161 146 159 148 141 130 168 183 95 79 200 51 47 39 24 236
28 38 38 38 57 46 48 51 60 66 73 80 87 109 113 170 188 195 203 183 170 158 148 129 135 135 134 128 140 126 116 124 123 146 133 123 98 91 73 69 56 57 221 232 234
23 35 39 40 40 72 71 48 52 58 55 67 72 77 82 85 88 92 95 101 108 113 121 126 126 119 108 110 120 125 115 133 118 116 113 97 94 89 84 78 72 66 60 242 68
36 26 35 32 41 40 45 59 64 68 49 61 73 76 75 76 78 84 90 97 187 101 99 98 100 106 111 124 114 116 118 115 118 115 99 115 102 102 93 89 81 80 71 60 56
20 44 21 29 44 40 49 47 56 63 69 70 65 66 60 69 77 81 85 91 89 90 97 101 100 113 114 114 117 119 121 123 112 111 109 112 109 111 112 96 202 223 72 75 231
22 28 20 24 27 37 52 58 46 50 61 65 63 62 60 59 62 66 69 79 88 93 101 112 115 119 122 121 122 123 114 112 121 121 115 118 115 116 103 95 81 73 75 63 68
13 18 18 42 26 30 43 50 45 58 47 58 60 62 57 51 52 63 70 79 86 104 102 107 108 113 119 114 114 117 115 116 111 105 105 115 95 82 79 83 80 73 70 82 73
16 20 18 26 32 24 13 37 51 69 54 51 46 62 63 57 64 80 87 91 86 94 73 107 106 102 102 112 104 120 106 106 93 104 95 97 94 70 117 68 76 79 84 93 72
12 17 20 14 18 20 25 12 37 37 42 43 65 48 60 73 76 73 84 79 82 93 90 98 112 192 90 117 115 95 87 94 86 86 88 76 75 96 88 83 77 238 241 65 240